Starlink 30110

decayed
NORAD ID: 57474 Int'l Des: 2023-107 Owner: SPXS Country: US Constellation: starlink
LEOCIRCULAR
Group

About Starlink 30110

Description loading...

Altitude History

Altitude vs Time

uPlot chart will show altitude changes over time

Two-Line Element Set

1 57474U 23107T 26036.40392421 .07254328 89620-5 11140-2 0 9992
2 57474 42.9655 51.3486 0016028 147.9782 212.2085 16.32642481141454
Epoch: Feb 5, 2026 • Age: 893 hours

Current Status

Position data unavailable
Launch Date Jul 28, 2023
Age 2.6 years
Decay Date Feb 5, 2026
Type internet

Technical Details

Classification Payload
Mass 730.00 kg
Dry Mass 700.00 kg
Total Mass 730.00 kg
Length 0.30 m
Diameter 4.10 m
Span 29.00 m
Shape Box + pan
Manufacturer SPXS
Bus Type Starlink V2M
Phase Status Unknown Transfer Status
Owner/State SPXS/US

Large Constellations

Loading constellations...